Погода в Висле

Польша     49°39′14″N   18°51′41″E
темп.,
°C
ветер,
м/с
пор.,
м/с
влажн.,
%
обл.,
%
осадки,
мм/ч
давл.,
гПа
погр.,
м
2 марта, вт
вт201:000ю12880 0.0 103724
04:000ю22820 0.0 103523
07:00+1ю22750 0.0 103630
10:00+8юз23540 0.0 1034285
13:00+11зсз22490 0.0 1034481
16:00+9з22630 0.0 1033113
19:00+5ююз12750 0.0 103422
22:00+4ю22740 0.0 103422
3 марта, ср
ср301:00+3ююв12710 0.0 103422
04:00+2ю22710 0.0 103222
07:00+3ю22690 0.0 103225
10:00+10ююз12520 0.0 1030198
13:00+13з12410 0.0 1028594
16:00+11з235716 0.0 1026212
19:00+6ююз23728 0.0 102654
22:00+4ю33780 0.0 102580
4 марта, чт
чт401:00+3ю33840 0.0 102387
04:00+2ю358536 0.0 102190
07:00+2ю358555 0.0 102091
10:00+9юз366364 0.0 1017483
13:00+12з585352 0.0 1015962
16:00+10зюз486282 0.0 1012910
19:00+7ююз357286 0.0 1012117
22:00+6юз2278100 0.0 101158
5 марта, пт
пт501:00+6зсз3790100 1.5 1011395
04:00+4ссз1397100 3.6 1011216
07:00+2с1296100 6.5 1012215
10:00+1ссз2396100 2.6 1014191
13:000с5896100 6.0 1017585
16:000с4795100 2.1 1019579
19:00−2с397299 3.0 1023351
22:00−4сз12720 0.0 102526
6 марта, сб
сб601:00−3зсз268548 0.2 1026241
04:00−3сз4886100 0.4 1028763
07:00−4ссз478399 1.1 1030909
10:00−2ссз466687 0.3 10321313
13:00+1сз474947 0.2 10291750
16:00+1сз35480 0.0 10281563
19:00−3ююз23640 0.0 102834
22:00−3ююз34690 0.0 102992